User: anonymous   Login
Location: Frankfurt+(oder)
(51.7984°N, 12.2168°E)
Time: 21:20:07
(UTC+02:00)
Language:

ISS - Orbit

View from above orbital plane
View from above orbital plane
View from above satellite
View from above satellite

Ground track
Ground track

The orbit data is extracted from the following two-line orbital elements,

1 25544U 98067A   17142.76262677  .00016717  00000-0  10270-3 0  9094
2 25544  51.6382 165.0474 0004968 184.3463 175.7648 15.53914438 17795
Epoch (UTC): 22 May 2017 18:18:10
Eccentricity: 0.0004968
inclination: 51.6382°
perigee height: 402 km
apogee height: 408 km
right ascension of ascending node: 165.0474°
argument of perigee: 184.3463°
revolutions per day: 15.53914438
mean anomaly at epoch: 175.7648°
orbit number at epoch: 1779

The dashed part of the orbit path shows where the satellite is in the earth's shadow,  

DLR